Regional Weather Roundup
Issued by NWS

Home | Current Version | Previous Version | Graphics & Text | Print | Product List | Glossary On
Versions: 1 2 3 4 5 6 7 8 9 10 11 12 13 14 15 16 17 18 19 20 21 22 23 24 25 26 27 28 29 30 31 32 33 34 35 36 37 38 39 40 41 42 43 44 45 46 47 48 49 50
000
ASUS43 KMKX 202021
RWRWI

WISCONSIN REGIONAL WEATHER ROUNDUP
NATIONAL WEATHER SERVICE MILWAUKEE/SULLIVAN WI
300 PM CDT SAT SEP 20 2014

NOTE: "FAIR" INDICATES FEW OR NO CLOUDS BELOW 12,000 FEET WITH NO
SIGNIFICANT WEATHER AND/OR OBSTRUCTIONS TO VISIBILITY.

WIZ001-002-006>008-014>016-023>028-202100-
NORTHWEST WISCONSIN

CITY           SKY/WX    TMP DP  RH WIND       PRES   REMARKS
SUPERIOR ARPT  SUNNY     70  51  52 NW10      29.70F
ASHLAND        SUNNY     68  52  56 W10       29.72S
HAYWARD        SUNNY     70  50  49 W9        29.73F
SIREN          MOSUNNY   69  53  57 NW9       29.76S
RICE LAKE      SUNNY     72  51  47 W13G21    29.76R
LADYSMITH      MOSUNNY   73  55  54 W10G17    29.74F
EAU CLAIRE     SUNNY     76  56  49 NW15G21   29.73F
MENOMONIE      CLEAR     76  53  44 W15       29.74F
NEW RICHMOND   SUNNY     74  53  47 W13G18    29.77S
OSCEOLA        SUNNY     74  56  53 NW14      29.79R
$$

WIZ003>005-009-010-017-018-202100-
NORTH CENTRAL WISCONSIN

CITY           SKY/WX    TMP DP  RH WIND       PRES   REMARKS
WOODRUFF       MOSUNNY   72  57  58 NW13      29.71S
RHINELANDER    MOSUNNY   70  56  61 VRB6      29.72S
EAGLE RIVER    PTSUNNY   68  53  57 NW9       29.70S
LAND O LAKES   PTSUNNY   66  54  65 W8        29.71S
PHILLIPS       MOSUNNY   69  55  60 W5        29.70F
TOMAHAWK       MOSUNNY   71  53  51 W13G20    29.72R
MEDFORD        MOSUNNY   71  56  59 NW9       29.73S
MERRILL        MOSUNNY   72  56  57 NW8G16    29.71R
$$

WIZ029-030-035-036-043>047-202100-
CENTRAL WISCONSIN

CITY           SKY/WX    TMP DP  RH WIND       PRES   REMARKS
WAUSAU         PTSUNNY   76  57  51 W15G25    29.69S
MOSINEE        MOSUNNY   73  61  64 W12       29.72S
MARSHFIELD     MOSUNNY   74  57  55 NW16      29.74R
STEVENS POINT  MOSUNNY   73  56  55 W8G17     29.72S
WAUPACA        PTSUNNY   76  64  67 W9        29.71F
WAUTOMA        MOSUNNY   74  64  70 W9        29.73F
WISC RAPIDS    MOSUNNY   77  59  53 W15G22    29.74S
CAMP DOUGLAS   MOSUNNY   75  64  69 W12G21    29.75R
$$

WIZ011>013-019>022-031-037>040-048>050-202100-
NORTHEAST WISCONSIN

CITY           SKY/WX    TMP DP  RH WIND       PRES   REMARKS
ANTIGO         MOSUNNY   69  56  62 NW12G17   29.70S
STURGEON BAY   CLOUDY    70  63  78 SW14      29.67S
GREEN BAY      CLOUDY    72  64  76 SW12G17   29.69F
MANITOWOC      CLOUDY    72  65  78 W8        29.72S
APPLETON       PTSUNNY   72  63  73 SW15      29.72F
CLINTONVILLE   CLOUDY    73  61  64 W9G17     29.68F
OSHKOSH        CLOUDY    70  64  81 W6        29.72F
$$

WIZ032>034-041-042-053>061-202100-
SOUTHWEST WISCONSIN

CITY           SKY/WX    TMP DP  RH WIND       PRES   REMARKS
LA CROSSE      MOSUNNY   77  61  57 NW8       29.75S
SPARTA         PTSUNNY   77  58  52 W8        29.75F
VIROQUA        MOCLDY    77  60  56 W12G20    29.79R
BOSCOBEL       SUNNY     78  63  59 SW13      29.78S HX  80
PRAIRIE DU CHI MOSUNNY   80  58  48 SW12      29.77F HX  80
PLATTEVILLE    FAIR      78  65  63 SW16G23   29.81F HX  80
$$

WIZ056-057-062-063-064-067-068-202100-
SOUTH CENTRAL WISCONSIN

CITY           SKY/WX    TMP DP  RH WIND       PRES   REMARKS
BARABOO/DELLS  PTSUNNY   72  62  69 W7        29.77R
LONE ROCK      PTSUNNY   78  63  59 SW14      29.78S HX  80
WATERTOWN      CLOUDY    75  65  70 SW12      29.76S
MADISON        CLOUDY    75  63  66 SW8       29.77F
MIDDLETON      FAIR      76  60  56 SW16G23   29.77F
MONROE         CLOUDY    73  64  73 SW21G31   29.81R
JANESVILLE     PTSUNNY   72  66  83 SW12      29.78F
$$

WIZ051-052-058>065-066-070>072-202100-
SOUTHEAST WISCONSIN

CITY           SKY/WX    TMP DP  RH WIND       PRES   REMARKS
MILWAUKEE      CLOUDY    74  63  68 SW18G24   29.79R
WAUKESHA       CLOUDY    72  63  73 SW10G20   29.79S
MILWAUKEE/TIMM RAIN      73  61  64 SW14G23   29.78S
RACINE         LGT RAIN  71  66  84 SW7       29.80F
BURLINGTON     LGT RAIN  67  64  87 SW9G18    29.80S
KENOSHA        TSTM      70  66  87 W9        29.82R FOG
FOND DU LAC    CLOUDY    69  65  86 SW6       29.73F
SHEBOYGAN      LGT RAIN  71  63  75 W16G23    29.74S
WEST BEND      LGT RAIN  72  61  68 W10       29.76S
JUNEAU         LGT RAIN  69  64  84 SW10      29.77S
$$

LSZ147-162-202100-
LAKE SUPERIOR

STATION/POSITION TIME  TEMP    WIND        PRES    WAVE
                       AIR SEA DIR/SP/G            HT/PER
                 (UTC) (F)     (DEG/KT/KT) (MB)    (FT/S)
W MID LAKE BUOY  1950   53 48  250/ 14/ 16 1004.7R   2/ 4
DEVILS ISLAND    2000   57     250/ 10/ 12 1006.0S
PORT WING        1900   62     240/ 10/ 13 1007.1S
SAXON HARBOR     1900   64     290/  8/ 14 1006.4S
$$

LMZ867-665-643>646-202100-
LAKE MICHIGAN

STATION/POSITION TIME  TEMP    WIND        PRES    WAVE
                       AIR SEA DIR/SP/G            HT/PER
                 (UTC) (F)     (DEG/KT/KT) (MB)    (FT/S)
N MID LAKE BUOY  1950   60 58  210/ 17/ 19 1002.7F   5/ 7
NORTHPORT PIER   1900   73     220/  5/ 13 1003.0F
KEWAUNEE LAKESHO 1900   71     250/  9/ 15 1004.9F
SHEBOYGAN LAKESH 2000   73 55  260/ 16/ 19 1006.8F
PORT WASHINGTON  1940   77     250/ 10/ 19 1007.5F
ATWATER BUOY     2000   72     230/ 14/ 19 1009.4R
MILWAUKEE LAKESH 2000   75     230/ 17/ 22   N/A
S MID LAKE BUOY  1950   67 63  210/ 16/ 17 1008.8F   3/ 5
KENOSHA   LAKESH 2000   76     240/  9/ 12 1008.5F
$$

TC  - TEMPERATURE IN CELSIUS
VSB - VISIBILITY IN STATUTE MILES
WCI - WIND CHILL INDEX
HX  - HEAT INDEX




USA.gov is the U.S. government's official web portal to all federal, state and local government web resources and services.